[[{"header":{"parameterUnit":"m.s-1","parameterCategory":1,"la1":30.2991,"la2":30.254,"lo1":-89.0895,"lo2":-89.0444,"dy":0.0017,"dx":0.0017,"nx":28,"ny":28,"refTime":"2025-09-13T21:00:00:Z","depth":0,"parameterNumber":2,"parameterNumberName":"U-component_of_WINDS"},"data":[0,0,0,0,0,0,0,0,0,0,0,0,0,0,0,0,0,0,0,0,0,0,0,0,0,0,0,0,0,0,0,0,0,0,0,0,0,0,0,0,0,0,0,0,0,0,0,0,0,0,0,0,0,0,0,0,0,0,1.9574,1.9575,0,1.9661,1.9662,1.9663,1.9692,1.9692,1.9692,1.9691,1.9776,1.9778,1.9781,0,0,0,0,0,0,0,0,0,0,0,0,0,1.9427,1.943,1.9574,1.9575,1.9576,1.9661,1.9662,1.9663,1.9692,1.9692,1.9692,1.9691,1.9775,1.9778,1.9781,0,0,0,0,0,0,0,0,0,0,0,0,0,1.95,1.9431,1.9574,1.9601,1.9604,1.9661,1.9662,1.9664,1.9692,1.9692,1.9691,1.9691,1.9774,1.9778,1.9782,1.9816,0,0,1.9794,1.9795,0,0,0,0,0,0,0,0,1.9496,1.9505,1.9596,1.9599,1.9603,1.9665,1.9642,1.9715,1.9693,1.9659,1.9691,1.9691,1.9739,1.9746,1.9763,1.982,1.9824,1.9794,1.9796,1.9798,1.9799,0,0,0,0,0,0,0,1.9491,1.9502,1.9608,1.9597,1.9601,1.9607,1.9617,1.9656,1.9701,1.9662,1.9664,1.9674,1.9741,1.976,1.9766,1.9825,1.9794,1.9797,1.98,1.9801,1.9914,1.9915,0,0,0,0,0,0,1.9482,1.9497,1.9605,1.9611,1.9547,1.961,1.9621,1.9646,1.97,1.9708,1.9675,1.9675,1.9753,1.9761,1.9769,1.9812,1.9798,1.9801,1.9804,1.9913,1.9914,1.9915,0,0,0,0,0,0,1.9479,1.9491,1.9602,1.9555,1.9569,1.9613,1.9641,1.9648,1.9666,1.971,1.9718,1.9686,1.9753,1.9763,1.9804,1.9816,1.9803,1.9807,1.9912,1.9913,1.9914,1.99,0,0,0,0,0,0,1.9474,1.949,1.9505,1.9555,1.9572,1.9638,1.9642,1.965,1.9674,1.9675,1.9723,1.973,1.9753,1.9798,1.9808,1.9821,1.981,1.9912,1.9913,1.9914,1.99,1.99,1.9901,0,0,0,0,0,1.9469,1.9496,1.9505,1.9518,1.9591,1.9638,1.9648,1.9676,1.9674,1.9689,1.9717,1.9728,1.9813,1.9802,1.9814,1.9827,1.9911,1.9913,1.9914,1.9899,1.99,1.9901,0,0,0,0,0,0,1.9444,1.9503,1.9514,1.9559,1.9593,1.9643,1.9662,1.9676,1.971,1.971,1.9742,1.9752,1.9791,1.9813,1.9801,1.9864,1.9862,1.9866,1.9847,1.9849,1.9849,1.9843,1.9813,0,0,0,0,0,1.9444,1.9479,1.9528,1.9563,1.958,1.9618,1.9639,1.9658,1.9694,1.9709,1.974,1.9774,1.9808,1.983,1.9864,1.9903,1.9913,1.9918,1.9919,1.9919,1.9922,1.9944,1.9946,1.992,1.992,1.992,0,0,1.9444,1.9481,1.95,1.9559,1.9588,1.9621,1.963,1.9665,1.969,1.9714,1.9755,1.9779,1.9818,1.9859,1.9878,1.9879,1.9932,1.9921,1.9921,1.9924,1.9946,1.9948,1.995,1.9921,1.9921,1.992,0,0,1.9461,1.9492,1.9525,1.9554,1.9599,1.9624,1.9631,1.9679,1.9697,1.9739,1.9757,1.9786,1.9845,1.9872,1.9894,1.9921,1.9932,1.9931,1.9934,1.9955,1.9957,1.9959,1.9968,1.9971,1.9934,1.9934,1.9934,0,1.9454,1.9507,1.9539,1.9574,1.9598,1.9623,1.9655,1.9681,1.9733,1.9749,1.9749,1.9823,1.9852,1.9899,1.9906,1.9922,1.9931,1.9925,1.9955,1.9957,1.9959,1.9968,1.9972,1.9933,1.9933,1.9933,1.9933,0,1.9497,1.9533,1.9554,1.9606,1.9632,1.9665,1.97,1.9723,1.974,1.9764,1.9806,1.9841,1.9883,1.9895,1.9911,1.9944,1.9943,1.9949,1.9948,1.9961,1.997,1.9973,1.9932,1.9933,1.9933,1.9933,0,0,1.95,1.9569,1.9576,1.96,1.9651,1.9679,1.9712,1.9754,1.9773,1.9808,1.9836,1.9885,1.9891,1.9915,1.9934,1.9953,1.9971,1.9956,1.9958,1.9957,2.0009,2.0004,2.0008,1.998,1.9981,1.9981,2.0006,0,1.9523,1.9585,1.9615,1.9664,1.9697,1.9721,1.975,1.9783,1.9807,1.9838,1.9864,1.9898,1.9903,1.9918,1.9938,1.9965,1.9982,1.9964,2.0005,2.0006,1.9993,2.0013,2.0008,2.0029,2.0009,2.001,2.0011,0,1.9558,1.9595,1.9647,1.9694,1.9709,1.9735,1.9776,1.9805,1.9843,1.9859,1.9887,1.9905,1.994,1.9937,1.9985,1.9972,1.999,2.0006,2.0008,2.0012,2.0008,2.0016,2.0037,2.004,2.0016,2.0016,2.0016,0,1.9553,1.9616,1.9656,1.9675,1.9732,1.9749,1.9773,1.9811,1.9834,1.9869,1.9884,1.9922,1.9942,1.9971,1.9999,1.9994,2.0043,2.0043,2.0056,2.0055,2.0065,2.0063,2.0087,2.0078,2.0078,2.0078,2.0077,0,1.9575,1.9606,1.9655,1.9679,1.9714,1.9747,1.978,1.9806,1.9839,1.9868,1.989,1.9916,1.9952,1.9982,2.0004,2.0039,2.0048,2.0061,2.0066,2.0059,2.0057,2.0071,2.007,2.0078,2.0078,2.0078,2.0078,0,1.9576,1.961,1.9655,1.9705,1.9718,1.9742,1.9783,1.9807,1.9832,1.9868,1.9878,1.9917,1.9954,1.9985,2.0032,2.0047,2.0084,2.009,2.0071,2.0074,2.0085,2.0083,2.0118,2.0123,2.011,2.0111,2.0111,0,1.9588,1.9613,1.9665,1.9687,1.9711,1.9745,1.9769,1.9802,1.9826,1.9871,1.9889,1.9928,1.996,2.0017,2.0049,2.0085,2.0093,2.0102,2.0098,2.009,2.0092,2.009,2.0092,2.0102,2.0102,2.0102,2.0102,0,1.9604,1.962,1.9655,1.9696,1.9724,1.9758,1.9791,1.9807,1.9846,1.9871,1.991,1.9935,1.9985,2.0022,2.0062,2.0085,2.0099,2.0103,2.0108,2.01,2.0088,2.0094,2.0071,2.0102,2.0102,2.0102,2.0102,2.0102,1.961,1.9633,1.9674,1.9712,1.9741,1.9772,1.9797,1.9826,1.9859,1.9903,1.992,1.9959,1.9996,2.0051,2.0074,2.0104,2.0106,2.0113,2.0115,2.0116,2.0115,2.0084,2.0112,2.0112,2.0112,2.0112,2.0112,0,1.9627,1.9655,1.969,1.9737,1.9766,1.9779,1.9817,1.9841,1.9875,1.9909,1.9941,1.9985,2.0021,2.0056,2.0095,2.0112,2.0119,2.0121,2.0119,2.0124,2.0111,2.0103,2.0114,2.0114,2.0114,2.0114,2.0114,2.0114,1.9639,1.9679,1.9699,1.9753,1.978,1.982,1.984,1.9868,1.9896,1.9944,1.9975,1.9998,2.0032,2.0073,2.0107,2.0116,2.0129,2.0128,2.0139,2.0126,2.0125,2.0124,2.0117,2.0131,2.0131,2.0149,2.0149,2.0149]},{"header":{"parameterUnit":"m.s-1","parameterCategory":1,"la1":30.2991,"la2":30.254,"lo1":-89.0895,"lo2":-89.0444,"dy":0.0017,"dx":0.0017,"nx":28,"ny":28,"refTime":"2025-09-13T21:00:00:Z","depth":0,"parameterNumber":3,"parameterNumberName":"V-component_of_WINDS"},"data":[0,0,0,0,0,0,0,0,0,0,0,0,0,0,0,0,0,0,0,0,0,0,0,0,0,0,0,0,0,0,0,0,0,0,0,0,0,0,0,0,0,0,0,0,0,0,0,0,0,0,0,0,0,0,0,0,0,0,0.9675,0.9674,0,0.9594,0.9593,0.9592,0.9549,0.9549,0.9549,0.9549,0.9461,0.9459,0.9457,0,0,0,0,0,0,0,0,0,0,0,0,0,0.9785,0.9784,0.9675,0.9674,0.9673,0.9594,0.9593,0.9592,0.9549,0.9549,0.9549,0.9548,0.9462,0.946,0.9457,0,0,0,0,0,0,0,0,0,0,0,0,0,0.9724,0.9783,0.9675,0.9642,0.9638,0.9595,0.9593,0.9592,0.9549,0.9549,0.9549,0.9548,0.9463,0.946,0.9457,0.9439,0,0,0.9446,0.9445,0,0,0,0,0,0,0,0,0.9728,0.972,0.9648,0.9644,0.964,0.9582,0.96,0.954,0.9549,0.9583,0.9549,0.9548,0.9501,0.9495,0.948,0.9435,0.9431,0.9446,0.9444,0.9443,0.9442,0,0,0,0,0,0,0,0.9732,0.9724,0.9643,0.9647,0.9642,0.9629,0.962,0.9589,0.9543,0.958,0.9576,0.9568,0.9499,0.9483,0.9477,0.943,0.9446,0.9443,0.9441,0.944,0.9364,0.9364,0,0,0,0,0,0,0.9742,0.9727,0.9645,0.964,0.9685,0.9627,0.9617,0.96,0.9544,0.9535,0.9568,0.9566,0.9489,0.9481,0.9474,0.9449,0.9443,0.9439,0.9437,0.9364,0.9364,0.9364,0,0,0,0,0,0,0.9745,0.9736,0.9649,0.9683,0.9671,0.9626,0.9607,0.9599,0.9583,0.9535,0.9526,0.956,0.9489,0.9479,0.9448,0.9445,0.9438,0.9435,0.9364,0.9364,0.9364,0.9398,0,0,0,0,0,0,0.9748,0.9737,0.9731,0.9683,0.9669,0.9625,0.9606,0.9597,0.9578,0.9575,0.9525,0.9517,0.9488,0.9453,0.9444,0.944,0.9432,0.9364,0.9364,0.9364,0.9397,0.9399,0.9401,0,0,0,0,0,0.9753,0.9743,0.9731,0.9721,0.9661,0.9625,0.9617,0.9585,0.9578,0.957,0.9539,0.9519,0.9447,0.945,0.944,0.9435,0.9364,0.9364,0.9364,0.9396,0.9399,0.9401,0,0,0,0,0,0,0.979,0.9736,0.9722,0.9697,0.9666,0.9618,0.9608,0.9589,0.9558,0.9556,0.9516,0.9505,0.9477,0.9453,0.9458,0.9414,0.9403,0.9401,0.9431,0.9433,0.9435,0.9441,0.9429,0,0,0,0,0,0.9796,0.9773,0.9726,0.9709,0.9694,0.9654,0.9637,0.9615,0.958,0.9566,0.9533,0.9499,0.9469,0.9449,0.9419,0.9393,0.9381,0.9384,0.9386,0.9388,0.9387,0.937,0.9371,0.9363,0.9363,0.9363,0,0,0.9807,0.9774,0.9762,0.9715,0.9689,0.9664,0.9643,0.9618,0.9599,0.9562,0.9531,0.9505,0.9464,0.9436,0.9421,0.9414,0.9386,0.9388,0.939,0.9388,0.937,0.9371,0.9371,0.9363,0.9363,0.9363,0,0,0.9814,0.9788,0.977,0.9744,0.9705,0.9678,0.9673,0.9628,0.961,0.9578,0.955,0.9525,0.9474,0.9446,0.9425,0.9421,0.94,0.9412,0.9422,0.9406,0.9407,0.9407,0.9405,0.9404,0.941,0.941,0.9411,0,0.9833,0.9796,0.9763,0.974,0.9719,0.9686,0.9667,0.9642,0.9594,0.958,0.9573,0.9508,0.9478,0.9442,0.9441,0.9425,0.9417,0.9417,0.941,0.941,0.941,0.9407,0.9406,0.9412,0.9412,0.9412,0.9412,0,0.982,0.9795,0.9784,0.974,0.9719,0.9697,0.9659,0.9641,0.962,0.9594,0.9561,0.9524,0.9485,0.9474,0.9454,0.9434,0.9431,0.9418,0.9406,0.9412,0.9409,0.9408,0.9414,0.9414,0.9413,0.9413,0,0,0.9849,0.9787,0.9784,0.9763,0.9716,0.9695,0.9671,0.9634,0.9619,0.9586,0.9564,0.9521,0.9508,0.9485,0.946,0.9446,0.9444,0.9434,0.9432,0.9436,0.9419,0.9429,0.9429,0.943,0.9429,0.9429,0.9422,0,0.9849,0.9807,0.9776,0.9745,0.972,0.9688,0.9667,0.9635,0.9609,0.9583,0.9554,0.9524,0.951,0.9495,0.948,0.9447,0.9439,0.9447,0.9407,0.9406,0.9418,0.9427,0.9438,0.9433,0.9421,0.942,0.942,0,0.9844,0.9814,0.9781,0.9736,0.9725,0.9707,0.967,0.9646,0.9608,0.959,0.9563,0.9538,0.951,0.9501,0.946,0.9466,0.9447,0.9429,0.9428,0.9422,0.9413,0.9421,0.9431,0.943,0.9418,0.9418,0.9418,0,0.9868,0.9819,0.9793,0.9776,0.9723,0.9711,0.9688,0.965,0.963,0.9597,0.9583,0.9547,0.9526,0.9498,0.9463,0.946,0.9425,0.9413,0.9408,0.9409,0.9402,0.9403,0.9408,0.9391,0.9391,0.9391,0.9391,0,0.9872,0.9852,0.9803,0.9786,0.9763,0.9727,0.9704,0.9678,0.9645,0.9622,0.9591,0.9569,0.9525,0.9497,0.9469,0.9439,0.943,0.9413,0.9406,0.9416,0.9418,0.9403,0.9402,0.9391,0.9391,0.9391,0.9391,0,0.9894,0.9861,0.9829,0.9782,0.977,0.9755,0.9713,0.9695,0.9667,0.9638,0.9629,0.9585,0.9551,0.9513,0.9466,0.9447,0.9418,0.9408,0.9431,0.9427,0.9423,0.9424,0.9419,0.9416,0.9401,0.9402,0.9402,0,0.9899,0.9883,0.9834,0.9817,0.9796,0.9768,0.9748,0.971,0.969,0.9645,0.9632,0.9596,0.9565,0.9511,0.9474,0.9437,0.9425,0.9426,0.9419,0.9429,0.9424,0.9425,0.9423,0.9428,0.9428,0.9428,0.9429,0,0.991,0.9893,0.9865,0.9831,0.9807,0.9778,0.9747,0.9735,0.9691,0.9669,0.9634,0.961,0.9562,0.9526,0.9485,0.9459,0.9436,0.9431,0.9428,0.9437,0.9451,0.9443,0.9436,0.9431,0.9431,0.9431,0.9431,0.9431,0.9922,0.9907,0.987,0.9839,0.9813,0.9785,0.9765,0.9735,0.9706,0.9665,0.9645,0.961,0.9571,0.9513,0.9488,0.9459,0.9452,0.9447,0.9446,0.9445,0.9447,0.9457,0.9451,0.9451,0.9451,0.9451,0.9451,0,0.9931,0.9906,0.9878,0.9837,0.9812,0.9794,0.9759,0.9739,0.9709,0.9676,0.9646,0.9605,0.957,0.953,0.9491,0.9475,0.9464,0.9466,0.9467,0.9461,0.9456,0.9463,0.9476,0.9476,0.9476,0.9476,0.9476,0.9476,0.9933,0.9905,0.9885,0.9843,0.9817,0.9784,0.9765,0.9738,0.9711,0.9668,0.9639,0.9613,0.9576,0.9534,0.95,0.9489,0.9476,0.9481,0.9467,0.9463,0.9461,0.9459,0.9465,0.9479,0.9479,0.9474,0.9474,0.9474]}]]